Regional Weather Roundup
Issued by NWS

Home | Current Version | Previous Version | Text Only | Print | Product List | Glossary Off
Versions: 1 2 3 4 5 6 7 8 9 10 11 12 13 14 15 16 17 18 19 20 21 22 23 24 25 26 27 28 29 30 31 32 33 34 35 36 37 38 39 40 41 42 43 44 45 46 47 48 49 50

980
ASUS43 KDTX 180410
RWRMI
MICHIGAN HOURLY REGIONAL WEATHER ROUNDUP
NATIONAL WEATHER SERVICE DETROIT/PONTIAC MI
1100 PM EST TUE JAN 17 2017

NOTE: "FAIR" INDICATES FEW OR NO CLOUDS BELOW 12,000 FEET WITH NO
SIGNIFICANT WEATHER AND/OR OBSTRUCTION TO VISIBILITY.

MIZ047>049-052>055-059>063-066>070-074>076-081>083-180500-
SOUTHEAST LOWER MICHIGAN

CITY           SKY/WX    TMP DP  RH WIND       PRES   REMARKS
ADRIAN         CLOUDY    38  37  97 W12G18    29.94R WCI  30
ALMA           CLOUDY    35  35  99 SW6       29.89S FOG     WCI  30
ANN ARBOR      CLOUDY    38  37  97 W10       29.91R WCI  31
BAD AXE        FOG       33  33 100 W6        29.85S VSB 1   WCI  28
CARO           CLOUDY    34  33  97 W6        29.87R FOG     WCI  29
DETROIT CITY   CLOUDY    39  37  93 W7        29.90S WCI  34
DETROIT        CLOUDY    40  37  89 W9        29.92R WCI  34
FLINT          CLOUDY    36  35  96 W9        29.89S WCI  29
GROSSE ILE     CLOUDY    40  37  87 MISG      29.91R
HILLSDALE      LGT RAIN  36  36 100 W13       29.91S WCI  27
HOWELL         CLOUDY    36  35  96 W9        29.90R FOG     WCI  29

CITY           SKY/WX    TMP DP  RH WIND       PRES   REMARKS
JACKSON        CLOUDY    37  35  92 W12       29.91S FOG     WCI  29
LAMBERTVILLE   CLOUDY    41  39  91 W6        29.93S
LANSING        CLOUDY    37  35  92 W9        29.91S FOG     WCI  30
LAPEER         CLOUDY    35  35  99 W6        29.87S FOG     WCI  30
MASON          CLOUDY    36  36 100 W6        29.91R FOG     WCI  31
MONROE         CLOUDY    39  39  99 W10G17    29.92R FOG     WCI  32
MT. CLEMENS    CLOUDY    39  38  99 W8        29.85F WCI  33
PONTIAC        CLOUDY    36  34  92 W12       29.87R WCI  28
PORT HOPE        N/A     34  34 100 W7        29.82S WCI  28
PORT HURON     CLOUDY    36  36 100 W5        29.87S WCI  32
TRI CITIES     CLOUDY    34  34 100 W8        29.89R FOG     WCI  27
MIDLAND        CLOUDY    35  34  96 W5        29.88S FOG     WCI  31
TROY           CLOUDY    38  36  90 W8        29.90S WCI  32
SAGINAW HB     CLOUDY    34  32  93 SW5       29.88S FOG     WCI  30
$$
MIZ043>046-050>051-056>058-064>065-071>073-077>080-180500-
SOUTHWEST LOWER MICHIGAN

CITY           SKY/WX    TMP DP  RH WIND       PRES   REMARKS
BATTLE CREEK   CLOUDY    37  37 100 W12       29.92F WCI  29
BENTON HARBOR  CLOUDY    37  35  92 W15       29.97R FOG     WCI  28
BIG RAPIDS     CLOUDY    34  33  96 CALM      29.87S FOG
COLDWATER      LGT SNOW  37  37 100 W10       29.93S WCI  29
FREMONT        FOG       35  35 100 W5        29.90R VSB 1/2 WCI  31
HOLLAND        CLOUDY    36  35  96 W9        29.93S FOG     WCI  29
GRAND RAPIDS   DRIZZLE   36  35  96 W12       29.91R FOG     WCI  28
IONIA          CLOUDY    35  35  99 W8        29.90R FOG     WCI  29
KALAMAZOO      LGT RAIN  37  34  89 SW8       29.94S WCI  31
LUDINGTON      CLOUDY    36  36 100 CALM      29.89S
MARSHALL       CLOUDY    37  36  97 W12       29.92S WCI  29
MOUNT PLEASANT CLOUDY    34  34  99 W3        29.88R FOG
MUSKEGON       DRIZZLE   37  36  96 W9        29.92R FOG     WCI  30
SOUTH HAVEN    CLOUDY    36  35  97 W10       29.95S WCI  28
$$
MIZ016>042-180500-
NORTHERN LOWER MICHIGAN

CITY           SKY/WX    TMP DP  RH WIND       PRES   REMARKS
ALPENA         CLOUDY    34  32  92 N6        29.87S FOG     WCI  29
BEAVER ISLAND  CLOUDY    32  32 100 CALM      29.90S FOG
BELLAIRE       CLOUDY    33  32  98 CALM      29.90R FOG
CADILLAC       CLOUDY    35  33  93 CALM      29.86R FOG
CHARLEVOIX     CLOUDY    32  32 100 CALM      29.92S FOG
FRANKFORT      FOG       34  34 100 CALM      29.90R VSB 1/2
GAYLORD        CLOUDY    32  29  88 N3        29.86S FOG
GRAYLING       CLOUDY    36  33  87 CALM      29.87R FOG
HARBOR SPRINGS CLOUDY    32  31  97 E3        29.89S FOG
HOUGHTON LAKE  CLOUDY    33  32  96 NW3       29.86S FOG
MANISTEE       FOG       34  33  96 CALM      29.89S VSB 1/4
OSCODA         FOG       35  34  97 NW5       29.85S VSB 1   WCI  31
PELLSTON       CLOUDY    32  30  92 CALM      29.89S FOG
ROGERS CITY    CLOUDY    33  32  96 CALM      29.89S
TRAVERSE CITY  FOG       35  33  92 CALM      29.89R VSB 3/4
$$
MIZ007>008-015-180500-
EASTERN UPPER MICHIGAN

CITY           SKY/WX    TMP DP  RH WIND       PRES   REMARKS
KINROSS        CLOUDY    30  28  92 CALM      29.88F
MACKINAC ISLAN CLOUDY    32  32 100 CALM      29.88S FOG
NEWBERRY       CLOUDY    30  27  88 SW6       29.87S WCI  24
S. S. MARIE    CLOUDY    34  27  75 E3        29.87F
MUNISING         N/A     28  26  92 S6        29.89S WCI  22
$$
MIZ004>006-011>014-085-180500-
CENTRAL UPPER MICHIGAN

CITY           SKY/WX    TMP DP  RH WIND       PRES   REMARKS
MANISTIQUE     CLOUDY    32  32  99 CALM      29.89S
ESCANABA       CLOUDY    33  32  96 W3        29.91S FOG
SAWYER-GWINN   FOG       22  22  97 SW3       29.87S VSB 1/4
$$
MIZ001>003-009>011-084-180500-
WESTERN UPPER MICHIGAN

CITY           SKY/WX    TMP DP  RH WIND       PRES   REMARKS
IRON MOUNTAIN  FOG       23  20  88 SE3       29.88S VSB 1/4
HOUGHTON       CLOUDY    21  19  92 NW7       29.84S FOG     WCI  12
COPPER HARBOR    N/A     27  24  89 W3        29.86S
IRONWOOD       CLOUDY    17  15  92 CALM      29.88F
$$

ABBREVIATIONS USED IN REMARKS
   TC - TEMPERATURE IN CELSIUS
  WCI - WIND CHILL INDEX
   HX - HEAT INDEX
  VSB - VISIBILITY





USA.gov is the U.S. government's official web portal to all federal, state and local government web resources and services.